Location: Axtheid
(49.6213°N, 11.8205°E)
Time: 12:53:15
(UTC+00:00)

Cosmos 2082 Rocket - Pass Details

Date: 24 January 2021
Orbit: 832 x 855 km, 71.0° (Epoch: 25 February)

Event Time Altitude Azimuth Distance (km) Brightness Sun altitude
Rises 18:34:43 0° 331° (NNW) 3,437 5.8 -25.6°
Reaches altitude 10° 18:37:12 10° 333° (NNW) 2,497 4.9 -26.0°
Enters shadow 18:42:48 76° 43° (NE) 885 2.1 -26.9°
